Location: *
(43.0833°N, 13.0500°E)
Time: 08:37:46
(UTC+00:00)

Cosmos 923 Rocket - Pass Details

Date: 15 November 2019
Orbit: 759 x 785 km, 74.0° (Epoch: 13 December)

Event Time Altitude Azimuth Distance (km) Brightness Sun altitude
Rises 17:24:19 0° 199° (SSW) 3,220 7.6 -18.3°
Reaches altitude 10° 17:26:41 10° 200° (SSW) 2,295 6.8 -18.7°
Maximum altitude 17:31:54 88° 288° (WNW) 769 3.9 -19.6°
Enters shadow 17:36:20 15° 19° (NNE) 1,993 5.9 -20.4°
